SR9NCI Weather Reports


time (UTC)temp
F
wind
direction
speed
knots
gust
knots
rain 1hr
in
rain 24hr
in
rain mn
in
humidity
%
barometer
mb
20260506025900 63 185 7.0 9.6 0.00 0.00 0.00
20260506025458 63 163 4.3 7.0 0.00 0.00 0.00
20260506025056 64 162 3.5 6.1 0.00 0.00 0.00
20260506024648 64 164 7.8 10.4 0.00 0.00 0.00
20260506024246 64 161 5.2 8.7 0.00 0.00 0.00
20260506023844 63 178 4.3 7.0 0.00 0.00 0.00
20260506023443 64 165 4.3 7.0 0.00 0.00 0.00
20260506023041 64 186 5.2 8.7 0.00 0.00 0.00
20260506022640 65 200 4.3 7.0 0.00 0.00 0.00
20260506022239 64 224 6.1 9.6 0.00 0.00 0.00
20260506021836 64 227 3.5 6.1 0.00 0.00 0.00
20260506021435 64 192 5.2 7.8 0.00 0.00 0.00
20260506021034 64 170 9.6 13.0 0.00 0.00 0.00
20260506020626 64 174 10.4 14.8 0.00 0.00 0.00
20260506020223 64 184 7.0 12.2 0.00 0.00 0.00
20260506015822 64 173 7.0 11.3 0.00 0.00 0.00
20260506015421 65 165 8.7 13.9 0.00 0.00 0.00
20260506015019 65 170 10.4 16.5 0.00 0.00 0.00
20260506014617 65 162 8.7 16.5 0.00 0.00 0.00
20260506014215 64 170 11.3 15.6 0.00 0.00 0.00
20260506013814 65 170 7.8 12.2 0.00 0.00 0.00
20260506013010 65 194 7.8 9.6 0.00 0.00 0.00
20260506012200 65 191 10.4 14.8 0.00 0.00 0.00
20260506011759 64 184 9.6 15.6 0.00 0.00 0.00
20260506011358 64 164 8.7 13.0 0.00 0.00 0.00
20260506010955 64 166 10.4 14.8 0.00 0.00 0.00
20260506010554 64 150 9.6 13.9 0.00 0.00 0.00
20260506010152 65 151 10.4 18.2 0.00 0.00 0.00
20260506005751 65 152 8.7 13.9 0.00 0.00 0.00
20260506005349 65 155 9.6 13.9 0.00 0.00 0.00
20260506004947 65 169 10.4 15.6 0.00 0.00 0.00
20260506004539 65 158 9.6 14.8 0.00 0.00 0.00
20260506004138 65 152 12.2 20.0 0.00 0.00 0.00
20260506003735 65 151 9.6 14.8 0.00 0.00 0.00
20260506003334 65 151 10.4 17.4 0.00 0.00 0.00
20260506002933 65 143 12.2 14.8 0.00 0.00 0.00
20260506002532 65 149 8.7 12.2 0.00 0.00 0.00
20260506002129 65 152 7.8 13.0 0.00 0.00 0.00
20260506001728 65 153 9.6 15.6 0.00 0.00 0.00
20260506001327 65 163 7.0 10.4 0.00 0.00 0.00
20260506000925 65 169 11.3 19.1 0.00 0.00 0.00
20260506000517 65 181 11.3 15.6 0.00 0.00 0.00
20260506000114 66 176 9.6 13.9 0.00 0.00 0.00
20260505235713 66 168 11.3 17.4 0.00 0.00 0.00
20260505235312 66 178 10.4 16.5 0.00 0.00 0.00
20260505234910 66 168 12.2 19.1 0.00 0.00 0.00
20260505234508 66 165 11.3 17.4 0.00 0.00 0.00
20260505234106 66 187 13.0 19.1 0.00 0.00 0.00
20260505233705 66 176 13.0 19.1 0.00 0.00 0.00
20260505233304 66 183 13.0 19.1 0.00 0.00 0.00
20260505232901 66 175 11.3 15.6 0.00 0.00 0.00
20260505232453 66 171 10.4 15.6 0.00 0.00 0.00
20260505232051 67 181 9.6 12.2 0.00 0.00 0.00
20260505231650 67 175 13.0 17.4 0.00 0.00 0.00
20260505231248 67 180 13.0 17.4 0.00 0.00 0.00
20260505230846 67 156 8.7 13.0 0.00 0.00 0.00
20260505230445 67 153 10.4 14.8 0.00 0.00 0.00
20260505230043 67 167 9.6 13.9 0.00 0.00 0.00
20260505225642 67 178 9.6 13.9 0.00 0.00 0.00
20260505225240 67 166 7.8 10.4 0.00 0.00 0.00
20260505224839 67 156 7.0 10.4 0.00 0.00 0.00
20260505224431 67 177 5.2 9.6 0.00 0.00 0.00
20260505224029 67 157 3.5 7.8 0.00 0.00 0.00
20260505223626 67 177 7.0 8.7 0.00 0.00 0.00
20260505223225 68 181 7.8 11.3 0.00 0.00 0.00
20260505222824 68 164 11.3 15.6 0.00 0.00 0.00
20260505222423 68 151 10.4 18.2 0.00 0.00 0.00
20260505222020 68 167 7.8 10.4 0.00 0.00 0.00
20260505221618 68 176 7.8 11.3 0.00 0.00 0.00
20260505221217 68 152 9.6 13.0 0.00 0.00 0.00
20260505220815 68 173 10.4 15.6 0.00 0.00 0.00
20260505220405 68 165 7.8 9.6 0.00 0.00 0.00
20260505220004 68 153 7.0 13.9 0.00 0.00 0.00
20260505215602 68 171 11.3 16.5 0.00 0.00 0.00
20260505215202 68 154 8.7 11.3 0.00 0.00 0.00
20260505214800 68 166 7.8 11.3 0.00 0.00 0.00
20260505214358 68 164 13.9 18.2 0.00 0.00 0.00
20260505213956 68 152 9.6 14.8 0.00 0.00 0.00
20260505213555 68 151 8.7 13.9 0.00 0.00 0.00
20260505213154 68 151 9.6 13.0 0.00 0.00 0.00
20260505212751 68 143 7.8 13.9 0.00 0.00 0.00
20260505212343 68 150 7.0 11.3 0.00 0.00 0.00
20260505211941 68 158 8.7 11.3 0.00 0.00 0.00
20260505211540 68 148 7.8 9.6 0.00 0.00 0.00
20260505211138 68 150 8.7 12.2 0.00 0.00 0.00
20260505210736 68 154 7.0 11.3 0.00 0.00 0.00
20260505210335 69 151 6.1 10.4 0.00 0.00 0.00
20260505205933 69 148 8.7 12.2 0.00 0.00 0.00
20260505205531 69 173 9.6 13.9 0.00 0.00 0.00
20260505205130 69 178 9.6 12.2 0.00 0.00 0.00
20260505204728 70 182 12.2 17.4 0.00 0.00 0.00
20260505204320 69 175 9.6 15.6 0.00 0.00 0.00
20260505203918 70 186 9.6 13.9 0.00 0.00 0.00
20260505203516 70 161 12.2 15.6 0.00 0.00 0.00
20260505203115 70 192 10.4 17.4 0.00 0.00 0.00
20260505202713 70 193 10.4 17.4 0.00 0.00 0.00
20260505202312 70 172 9.6 13.0 0.00 0.00 0.00
20260505201910 70 193 7.0 10.4 0.00 0.00 0.00
20260505201509 70 181 9.6 13.0 0.00 0.00 0.00
20260505201108 71 196 11.3 21.7 0.00 0.00 0.00
20260505200706 70 172 13.9 20.0 0.00 0.00 0.00
20260505200257 71 196 10.4 16.5 0.00 0.00 0.00
20260505195855 71 176 8.7 16.5 0.00 0.00 0.00
20260505195454 71 194 7.8 10.4 0.00 0.00 0.00
20260505195053 71 173 8.7 13.9 0.00 0.00 0.00
20260505194650 71 192 7.8 10.4 0.00 0.00 0.00
20260505194249 71 180 9.6 14.8 0.00 0.00 0.00
20260505193847 71 163 9.6 12.2 0.00 0.00 0.00
20260505193446 71 170 7.8 14.8 0.00 0.00 0.00
20260505193045 71 173 7.8 10.4 0.00 0.00 0.00
20260505192642 71 164 5.2 8.7 0.00 0.00 0.00
20260505192234 72 180 5.2 7.8 0.00 0.00 0.00
20260505191832 72 177 7.8 15.6 0.00 0.00 0.00
20260505191431 72 162 4.3 7.0 0.00 0.00 0.00
20260505191029 72 186 7.8 10.4 0.00 0.00 0.00
20260505190627 73 187 7.8 10.4 0.00 0.00 0.00
20260505190226 73 173 7.0 10.4 0.00 0.00 0.00
20260505185825 73 182 7.8 9.6 0.00 0.00 0.00
20260505185422 73 184 8.7 13.9 0.00 0.00 0.00
20260505185021 73 202 11.3 15.6 0.00 0.00 0.00
20260505184620 73 182 8.7 13.9 0.00 0.00 0.00
20260505184212 73 178 8.7 10.4 0.00 0.00 0.00
20260505183809 73 183 6.1 8.7 0.00 0.00 0.00
20260505183408 73 195 8.7 12.2 0.00 0.00 0.00
20260505183007 73 187 6.1 7.8 0.00 0.00 0.00
20260505182605 73 189 7.8 11.3 0.00 0.00 0.00
20260505182204 73 177 7.0 10.4 0.00 0.00 0.00
20260505181801 73 183 7.0 9.6 0.00 0.00 0.00
20260505181400 74 177 7.8 12.2 0.00 0.00 0.00
20260505180959 74 187 7.0 9.6 0.00 0.00 0.00
20260505180557 74 182 9.6 13.9 0.00 0.00 0.00
20260505180148 74 175 9.6 13.0 0.00 0.00 0.00
20260505175746 74 175 9.6 13.9 0.00 0.00 0.00
20260505175345 74 175 8.7 12.2 0.00 0.00 0.00
20260505174944 74 166 8.7 13.9 0.00 0.00 0.00
20260505174541 74 168 8.7 11.3 0.00 0.00 0.00
20260505174140 74 165 8.7 12.2 0.00 0.00 0.00
20260505173738 75 158 11.3 18.2 0.00 0.00 0.00
20260505173337 75 169 9.6 14.8 0.00 0.00 0.00
20260505172935 75 192 7.8 13.9 0.00 0.00 0.00
20260505172533 75 186 9.6 15.6 0.00 0.00 0.00
20260505172126 76 200 5.2 7.0 0.00 0.00 0.00
20260505171723 76 185 6.1 9.6 0.00 0.00 0.00
20260505171322 76 200 8.7 12.2 0.00 0.00 0.00
20260505170920 76 187 9.6 13.0 0.00 0.00 0.00
20260505170518 76 183 7.8 10.4 0.00 0.00 0.00
20260505165716 76 202 10.4 17.4 0.00 0.00 0.00
20260505165313 77 182 9.6 12.2 0.00 0.00 0.00
20260505164511 77 182 11.3 16.5 0.00 0.00 0.00
20260505164103 77 188 10.4 17.4 0.00 0.00 0.00
20260505163700 77 178 14.8 20.0 0.00 0.00 0.00
20260505163259 78 170 15.6 24.3 0.00 0.00 0.00
20260505162858 80 161 11.3 19.1 0.00 0.00 0.00
20260505162456 80 176 8.7 12.2 0.00 0.00 0.00
20260505162054 80 185 12.2 16.5 0.00 0.00 0.00
20260505161652 81 169 10.4 16.5 0.00 0.00 0.00
20260505161251 81 186 12.2 15.6 0.00 0.00 0.00
20260505160850 82 169 12.2 14.8 0.00 0.00 0.00
20260505160448 81 180 9.6 13.0 0.00 0.00 0.00
20260505153228 80 172 12.2 16.5 0.00 0.00 0.00
20260505152826 80 171 13.9 19.1 0.00 0.00 0.00
20260505152424 80 163 11.3 20.0 0.00 0.00 0.00
20260505152016 79 165 17.4 26.9 0.00 0.00 0.00
20260505151615 80 145 14.8 25.2 0.00 0.00 0.00
20260505151212 80 163 13.0 20.0 0.00 0.00 0.00
20260505150811 80 171 15.6 21.7 0.00 0.00 0.00
20260505150409 81 160 13.0 18.2 0.00 0.00 0.00
20260505140337 79 162 9.6 18.2 0.00 0.00 0.00
20260505130259 81 151 17.4 24.3 0.00 0.00 0.00
20260505124653 82 175 15.6 23.5 0.00 0.00 0.00
20260505124251 82 177 13.0 19.1 0.00 0.00 0.00
20260505123843 82 154 13.0 20.0 0.00 0.00 0.00
20260505123440 82 175 15.6 20.0 0.00 0.00 0.00
20260505123039 82 160 17.4 26.1 0.00 0.00 0.00
20260505122638 83 161 13.0 20.0 0.00 0.00 0.00
20260505122236 82 178 13.9 20.9 0.00 0.00 0.00
20260505121834 82 165 17.4 26.1 0.00 0.00 0.00
20260505121432 81 169 20.9 28.7 0.00 0.00 0.00
20260505121031 82 185 13.0 19.1 0.00 0.00 0.00
20260505120630 81 141 9.6 13.0 0.00 0.00 0.00
20260505120227 82 154 10.4 14.8 0.00 0.00 0.00
20260505115819 80 175 7.8 12.2 0.00 0.00 0.00
20260505115417 79 180 10.4 13.9 0.00 0.00 0.00
20260505115016 80 180 13.9 18.2 0.00 0.00 0.00
20260505114614 80 141 13.0 22.6 0.00 0.00 0.00
20260505114212 80 147 12.2 20.9 0.00 0.00 0.00
20260505113811 79 140 9.6 14.8 0.00 0.00 0.00
20260505113409 78 162 12.2 19.1 0.00 0.00 0.00
20260505113008 78 167 11.3 15.6 0.00 0.00 0.00
20260505112606 78 154 9.6 16.5 0.00 0.00 0.00
20260505112204 78 165 11.3 15.6 0.00 0.00 0.00
20260505111756 77 181 14.8 20.9 0.00 0.00 0.00
20260505111355 79 174 13.0 21.7 0.00 0.00 0.00
20260505110953 79 176 13.9 21.7 0.00 0.00 0.00
20260505110552 78 172 13.9 19.1 0.00 0.00 0.00
20260505110150 78 184 9.6 15.6 0.00 0.00 0.00
20260505101725 78 152 9.6 13.9 0.00 0.00 0.00
20260505101323 77 165 12.2 20.0 0.00 0.00 0.00
20260505100922 77 151 14.8 24.3 0.00 0.00 0.00
20260505100521 77 178 15.6 20.9 0.00 0.00 0.00
20260505100118 78 163 14.8 20.0 0.00 0.00 0.00
20260505095710 79 157 14.8 22.6 0.00 0.00 0.00
20260505095309 79 154 13.9 20.9 0.00 0.00 0.00
20260505094908 78 165 15.6 26.9 0.00 0.00 0.00
20260505094505 78 166 20.0 26.1 0.00 0.00 0.00
20260505094104 78 177 19.1 25.2 0.00 0.00 0.00
20260505093739 78 182 14.8 25.2 0.00 0.00 0.00
20260505093703 78 182 14.8 25.2 0.00 0.00 0.00
20260505093301 79 166 18.2 27.8 0.00 0.00 0.00
20260505092859 78 153 13.0 21.7 0.00 0.00 0.00
20260505092458 79 157 13.9 19.1 0.00 0.00 0.00
20260505092056 78 169 16.5 22.6 0.00 0.00 0.00
20260505091648 78 168 17.4 26.9 0.00 0.00 0.00
20260505091246 78 155 13.9 22.6 0.00 0.00 0.00
20260505090844 78 163 15.6 20.0 0.00 0.00 0.00
20260505090443 78 147 13.9 22.6 0.00 0.00 0.00
20260505090041 78 146 14.8 20.0 0.00 0.00 0.00
20260505085640 78 155 11.3 23.5 0.00 0.00 0.00
20260505085237 77 150 13.0 20.9 0.00 0.00 0.00
20260505084836 77 155 13.9 18.2 0.00 0.00 0.00
20260505084435 77 159 10.4 15.6 0.00 0.00 0.00
20260505084033 76 150 9.6 17.4 0.00 0.00 0.00
20260505083624 76 153 10.4 18.2 0.00 0.00 0.00
20260505083222 76 167 15.6 25.2 0.00 0.00 0.00
20260505082821 77 146 9.6 13.9 0.00 0.00 0.00
20260505082420 76 149 12.2 17.4 0.00 0.00 0.00
20260505082017 75 137 13.0 20.0 0.00 0.00 0.00
20260505081616 76 136 12.2 20.0 0.00 0.00 0.00
20260505081215 76 160 13.0 23.5 0.00 0.00 0.00
20260505080814 75 140 13.9 20.0 0.00 0.00 0.00
20260505080413 75 167 12.2 17.4 0.00 0.00 0.00
20260505080010 75 155 13.9 20.0 0.00 0.00 0.00
20260505075602 74 161 7.0 10.4 0.00 0.00 0.00
20260505075200 74 154 11.3 16.5 0.00 0.00 0.00
20260505074759 75 154 10.4 13.0 0.00 0.00 0.00
20260505074357 75 133 9.6 13.0 0.00 0.00 0.00
20260505073955 75 143 9.6 14.8 0.00 0.00 0.00
20260505073554 75 156 11.3 14.8 0.00 0.00 0.00
20260505073152 75 134 10.4 17.4 0.00 0.00 0.00
20260505072750 75 145 11.3 18.2 0.00 0.00 0.00
20260505072349 74 141 10.4 16.5 0.00 0.00 0.00
20260505071947 74 141 11.3 16.5 0.00 0.00 0.00
20260505071539 75 145 12.2 18.2 0.00 0.00 0.00
20260505071136 76 148 10.4 19.1 0.00 0.00 0.00
20260505070735 79 140 13.9 20.0 0.00 0.00 0.00
20260505070334 78 152 13.0 18.2 0.00 0.00 0.00
20260505065932 75 148 12.2 16.5 0.00 0.00 0.00
20260505065128 72 150 12.2 16.5 0.00 0.00 0.00
20260505064728 72 140 10.4 16.5 0.00 0.00 0.00
20260505064327 72 145 11.3 19.1 0.00 0.00 0.00
20260505063516 72 135 11.3 19.1 0.00 0.00 0.00
20260505063114 71 137 10.4 15.6 0.00 0.00 0.00
20260505062713 70 132 10.4 15.6 0.00 0.00 0.00
20260505062312 70 142 11.3 17.4 0.00 0.00 0.00
20260505061909 70 132 9.6 13.0 0.00 0.00 0.00
20260505061508 70 143 8.7 13.9 0.00 0.00 0.00
20260505061106 70 135 8.7 14.8 0.00 0.00 0.00
20260505060705 70 124 10.4 17.4 0.00 0.00 0.00
20260505060303 71 138 9.6 14.8 0.00 0.00 0.00
20260505055901 70 131 10.4 15.6 0.00 0.00 0.00
20260505055453 70 134 8.7 13.9 0.00 0.00 0.00
20260505055051 70 125 10.4 14.8 0.00 0.00 0.00
20260505054650 70 127 7.8 12.2 0.00 0.00 0.00
20260505054248 70 131 9.6 15.6 0.00 0.00 0.00
20260505053846 70 121 7.8 10.4 0.00 0.00 0.00
20260505053445 70 123 7.0 13.9 0.00 0.00 0.00
20260505053043 70 122 7.8 11.3 0.00 0.00 0.00
20260505052641 70 122 7.8 10.4 0.00 0.00 0.00
20260505052240 70 121 7.0 10.4 0.00 0.00 0.00
20260505051838 69 124 7.0 10.4 0.00 0.00 0.00
20260505051430 69 127 8.7 13.9 0.00 0.00 0.00
20260505051027 69 124 7.8 11.3 0.00 0.00 0.00
20260505050627 68 132 8.7 12.2 0.00 0.00 0.00
20260505050226 68 121 7.0 9.6 0.00 0.00 0.00
20260505041358 66 111 2.6 4.3 0.00 0.00 0.00
20260505040956 66 138 3.5 6.1 0.00 0.00 0.00
20260505040555 65 146 5.2 7.8 0.00 0.00 0.00
20260505040152 65 127 3.5 5.2 0.00 0.00 0.00
20260505035750 65 117 4.3 7.8 0.00 0.00 0.00
20260505035343 65 130 3.5 5.2 0.00 0.00 0.00
20260505034941 65 149 4.3 7.0 0.00 0.00 0.00
20260505034539 64 124 4.3 8.7 0.00 0.00 0.00
20260505034138 63 97 4.3 7.0 0.00 0.00 0.00
20260505033736 64 124 3.5 7.0 0.00 0.00 0.00
20260505033335 63 111 1.7 3.5 0.00 0.00 0.00
20260505032932 63 111 2.6 4.3 0.00 0.00 0.00
20260505032530 63 111 2.6 5.2 0.00 0.00 0.00
20260505032129 63 111 3.5 5.2 0.00 0.00 0.00
20260505031728 62 102 4.3 7.0 0.00 0.00 0.00
20260505031320 63 111 2.6 5.2 0.00 0.00 0.00
20260505030916 62 90 1.7 4.3 0.00 0.00 0.00
20260505030516 62 90 2.6 5.2 0.00 0.00 0.00
20260505030115 63 97 4.3 6.1 0.00 0.00 0.00